User: anonymous   Login
Location: Lawrence Hall of Science
(37.8785°N, 122.2415°W)
Time: 02:27:19
(UTC-08:00)
Language:

ARGOS - Orbit

View from above orbital plane
View from above orbital plane
View from above satellite
View from above satellite

Ground track
Ground track

The orbit data is extracted from the following two-line orbital elements,

1 25634U 99008A   17321.59656291 -.00000005 +00000-0 +17949-4 0  9993
2 25634 098.6005 020.1169 0011152 122.5498 237.6757 14.19322446969759
Epoch (UTC): 17 November 2017 14:19:03
Eccentricity: 0.0011152
inclination: 98.6005°
perigee height: 819 km
apogee height: 835 km
right ascension of ascending node: 20.1169°
argument of perigee: 122.5498°
revolutions per day: 14.19322446
mean anomaly at epoch: 237.6757°
orbit number at epoch: 96975

The dashed part of the orbit path shows where the satellite is in the earth's shadow,  

DLR